Weather History for Chesapeake, VA

Change the Weather History Date:

Thursday, October 11, 2012

  Actual Average (KORF) Record (KORF)
Temperature  
Mean Temperature 57 °F 64 °F  
Max Temperature 64 °F 72 °F 88 °F (1990)
Min Temperature 50 °F 56 °F 37 °F (1906)
Degree Days  
Heating Degree Days 8 3  
Month to date heating degree days 27  
Since 1 July heating degree days 38  
Cooling Degree Days 0 2  
Month to date cooling degree days 32  
Year to date cooling degree days 1597  
Growing Degree Days 7 (Base 50)    
Moisture  
Dew Point 42 °F    
Average Humidity 57    
Maximum Humidity 94    
Minimum Humidity 34    
Precipitation  
Precipitation 0.00 in 0.12 in 3.45 in (2002)
Month to date precipitation 1.25  
Year to date precipitation 37.95  
Snow  
Snow 0.00 in 0.00 in 0.00 in (2002)
Month to date snowfall 0.0  
Since 1 July snowfall 0.0  
Snow Depth -    
Sea Level Pressure  
Sea Level Pressure 30.22 in    
Wind  
Wind Speed 4 mph (North)    
Max Wind Speed 12 mph    
Max Gust Speed 18 mph    
Visibility 10 miles    
Events      
T = Trace of Precipitation, MM = Missing Value Source: NWS Daily Summary

Daily Weather History Graph

Daily Weather History Graph

Search for Another Location

Airport:

Trip Planner

Search our weather history database for the weather conditions in past years. The results will help you decide how hot, cold, wet, or windy it might be!

Date:

Astronomy

Oct. 11, 2012 Rise Set
Actual Time 7:09 AM EDT 6:33 PM EDT
Civil Twilight 6:43 AM EDT 6:59 PM EDT
Nautical Twilight 6:13 AM EDT 7:29 PM EDT
Astronomical Twilight 5:43 AM EDT 7:59 PM EDT
Moon 2:51 AM EDT (10/11) 4:03 PM EDT (10/11)
Length of Visible Light 12h 16m
Length of Day
11h 24m
Waning Crescent, 18% of the Moon is Illuminated
Oct 11
Waning Crescent
Oct 15
New
Oct 21
First Quarter
Oct 29
Full
Nov 6
Last Quarter

Hourly Weather History & Observations

Time (EDT) Temp. Dew Point Humidity Pressure Visibility Wind Dir Wind Speed Gust Speed Precip Events Conditions
12:15 AM 55.4 °F 53.6 °F 94% 30.06 in 10.0 mi Calm Calm - N/A   Clear
12:35 AM 55.4 °F 51.8 °F 88% 30.07 in 10.0 mi Calm Calm - N/A   Clear
12:55 AM 55.4 °F 51.8 °F 88% 30.08 in 10.0 mi Calm Calm - N/A   Clear
1:15 AM 55.4 °F 51.8 °F 88% 30.09 in 10.0 mi WNW 3.5 mph - N/A   Clear
1:35 AM 57.2 °F 51.8 °F 82% 30.10 in 10.0 mi NW 4.6 mph - N/A   Clear
1:55 AM 55.4 °F 51.8 °F 88% 30.11 in 10.0 mi Calm Calm - N/A   Clear
2:15 AM 57.2 °F 48.2 °F 72% 30.11 in 10.0 mi North 5.8 mph - N/A   Clear
2:35 AM 57.2 °F 46.4 °F 67% 30.11 in 10.0 mi NNW 4.6 mph - N/A   Clear
2:55 AM 57.2 °F 46.4 °F 67% 30.12 in 10.0 mi North 4.6 mph - N/A   Clear
3:15 AM 57.2 °F 44.6 °F 63% 30.12 in 10.0 mi North 8.1 mph - N/A   Clear
3:55 AM 57.2 °F 44.6 °F 63% 30.13 in 10.0 mi North 4.6 mph - N/A   Clear
4:15 AM 57.2 °F 44.6 °F 63% 30.14 in 10.0 mi North 4.6 mph - N/A   Clear
4:35 AM 57.2 °F 44.6 °F 63% 30.15 in 10.0 mi North 4.6 mph - N/A   Clear
4:55 AM 55.4 °F 44.6 °F 67% 30.16 in 10.0 mi North 3.5 mph - N/A   Clear
5:15 AM 55.4 °F 44.6 °F 67% 30.17 in 10.0 mi North 4.6 mph - N/A   Clear
5:35 AM 55.4 °F 42.8 °F 63% 30.18 in 10.0 mi North 5.8 mph - N/A   Clear
5:55 AM 55.4 °F 42.8 °F 63% 30.19 in 10.0 mi NNW 5.8 mph - N/A   Clear
6:15 AM 55.4 °F 42.8 °F 63% 30.20 in 10.0 mi North 5.8 mph - N/A   Clear
6:35 AM 55.4 °F 41.0 °F 58% 30.21 in 10.0 mi North 3.5 mph - N/A   Clear
6:55 AM 53.6 °F 42.8 °F 67% 30.21 in 10.0 mi NNW 3.5 mph - N/A   Clear
7:15 AM 50.0 °F 44.6 °F 82% 30.22 in 10.0 mi NW 4.6 mph - N/A   Clear
7:35 AM 51.8 °F 42.8 °F 71% 30.23 in 10.0 mi NW 4.6 mph - N/A   Clear
7:55 AM 51.8 °F 42.8 °F 71% 30.24 in 10.0 mi NW 3.5 mph - N/A   Clear
8:15 AM 53.6 °F 44.6 °F 72% 30.25 in 10.0 mi Calm Calm - N/A   Clear
8:35 AM 55.4 °F 44.6 °F 67% 30.26 in 10.0 mi NW 3.5 mph - N/A   Clear
8:55 AM 57.2 °F 42.8 °F 59% 30.27 in 10.0 mi NNW 6.9 mph - N/A   Clear
9:15 AM 57.2 °F 41.0 °F 55% 30.28 in 10.0 mi North 6.9 mph - N/A   Clear
9:35 AM 57.2 °F 39.2 °F 51% 30.29 in 10.0 mi North 9.2 mph 18.4 mph N/A   Clear
9:55 AM 59.0 °F 39.2 °F 48% 30.29 in 10.0 mi NNW 11.5 mph - N/A   Clear
10:15 AM 60.8 °F 41.0 °F 48% 30.30 in 10.0 mi North 6.9 mph 16.1 mph N/A   Clear
10:35 AM 60.8 °F 39.2 °F 45% 30.30 in 10.0 mi North 8.1 mph - N/A   Clear
10:55 AM 60.8 °F 39.2 °F 45% 30.30 in 10.0 mi NNW 9.2 mph - N/A   Clear
11:15 AM 60.8 °F 39.2 °F 45% 30.31 in 10.0 mi NNW 9.2 mph - N/A   Clear
11:35 AM 60.8 °F 39.2 °F 45% 30.30 in 10.0 mi North 10.4 mph - N/A   Clear
11:55 AM 60.8 °F 39.2 °F 45% 30.30 in 10.0 mi NNE 9.2 mph - N/A   Clear
12:15 PM 60.8 °F 39.2 °F 45% 30.30 in 10.0 mi NNE 3.5 mph - N/A   Clear
12:35 PM 62.6 °F 37.4 °F 39% 30.29 in 10.0 mi NE 9.2 mph - N/A   Clear
12:55 PM 62.6 °F 37.4 °F 39% 30.29 in 10.0 mi NE 6.9 mph - N/A   Clear
1:15 PM 62.6 °F 37.4 °F 39% 30.28 in 10.0 mi NE 9.2 mph - N/A   Clear
1:55 PM 62.6 °F 37.4 °F 39% 30.26 in 10.0 mi NNW 5.8 mph - N/A   Clear
2:15 PM 62.6 °F 37.4 °F 39% 30.25 in 10.0 mi NE 5.8 mph - N/A   Clear
2:35 PM 62.6 °F 35.6 °F 37% 30.25 in 10.0 mi NW 6.9 mph - N/A   Clear
2:55 PM 64.4 °F 37.4 °F 37% 30.25 in 10.0 mi SE 4.6 mph - N/A   Clear
3:15 PM 64.4 °F 37.4 °F 37% 30.25 in 10.0 mi Calm Calm - N/A   Clear
3:35 PM 64.4 °F 35.6 °F 34% 30.25 in 10.0 mi Calm Calm - N/A   Clear
3:55 PM 64.4 °F 37.4 °F 37% 30.25 in 10.0 mi Calm Calm - N/A   Clear
4:15 PM 64.4 °F 37.4 °F 37% 30.24 in 10.0 mi Calm Calm - N/A   Clear
4:35 PM 64.4 °F 37.4 °F 37% 30.24 in 10.0 mi Calm Calm - N/A   Clear
4:55 PM 64.4 °F 35.6 °F 34% 30.23 in 10.0 mi Calm Calm - N/A   Clear
5:15 PM 64.4 °F 35.6 °F 34% 30.24 in 10.0 mi Calm Calm - N/A   Clear
5:35 PM 64.4 °F 41.0 °F 42% 30.24 in 10.0 mi Calm Calm - N/A   Clear
6:15 PM 59.0 °F 48.2 °F 67% 30.24 in 10.0 mi Calm Calm - N/A   Clear